Weather History for KHRO - February, 2013

Change the Weather History Date:

Sunday, February 24, 2013

  Actual Average Record
Temperature  
Mean Temperature 41 °F 43 °F  
Max Temperature 56 °F 53 °F 83 °F (1918)
Min Temperature 25 °F 32 °F 4 °F (1910)
Degree Days  
Heating Degree Days 24 22  
Month to date heating degree days 592 600  
Since 1 July heating degree days 2788 3086  
Cooling Degree Days 0 0  
Month to date cooling degree days 0 0  
Year to date cooling degree days 1 0  
Moisture  
Dew Point 28 °F    
Average Humidity 67    
Maximum Humidity 92    
Minimum Humidity 41    
Precipitation  
Precipitation 0.00 in 0.10 in 1.57 in (2011)
Month to date precipitation 2.30 2.23  
Year to date precipitation 5.67 4.79  
Snow  
Snow 0.00 in 0.10 in 4.00 in (1979)
Month to date snowfall 1.5 2.8  
Since 1 July snowfall 1.8 8.8  
Snow Depth 0.00 in    
Sea Level Pressure  
Sea Level Pressure 29.97 in    
Wind  
Wind Speed 9 mph (SE)    
Max Wind Speed 18 mph    
Max Gust Speed 24 mph    
Visibility 10 miles    
Events      
T = Trace of Precipitation, MM = Missing Value Source: NWS Daily Summary

Daily Weather History Graph

Daily Weather History Graph

Search for Another Location

Airport or City:

Trip Planner

Search our weather history database for the weather conditions in past years. The results will help you decide how hot, cold, wet, or windy it might be!

Date:

Astronomy

Feb. 24, 2013 Rise Set
Actual Time 6:49 AM CST 6:02 PM CST
Civil Twilight 6:23 AM CST 6:28 PM CST
Nautical Twilight 5:53 AM CST 6:58 PM CST
Astronomical Twilight 5:23 AM CST 7:28 PM CST
Moon 5:14 PM CST 5:46 AM CST
Length of Visible Light 12h 05m
Length of Day
11h 13m
Waxing Gibbous, 99% of the Moon is Illuminated
Feb 24
Waxing Gibbous
Feb 25
Full
Mar 4
Last Quarter
Mar 11
New
Mar 19
First Quarter

Hourly Weather History & Observations

Time (CST) Temp. Windchill Dew Point Humidity Pressure Visibility Wind Dir Wind Speed Gust Speed Precip Events Conditions
12:53 AM 30.0 °F 26.5 °F 23.0 °F 75% 30.01 in 10.0 mi SSE 3.5 mph - N/A   Clear
1:53 AM 28.9 °F - 23.0 °F 78% 30.01 in 10.0 mi Calm Calm - N/A   Clear
2:53 AM 28.0 °F - 23.0 °F 81% 30.00 in 10.0 mi Calm Calm - N/A   Clear
3:53 AM 26.1 °F 20.5 °F 23.0 °F 88% 30.00 in 10.0 mi SE 4.6 mph - N/A   Clear
4:53 AM 25.0 °F 18.1 °F 21.9 °F 88% 30.00 in 10.0 mi SE 5.8 mph - N/A   Clear
5:53 AM 25.0 °F 17.1 °F 21.9 °F 88% 30.01 in 9.0 mi ESE 6.9 mph - N/A   Clear
6:53 AM 26.1 °F 20.5 °F 23.0 °F 88% 30.02 in 10.0 mi SE 4.6 mph - N/A   Clear
7:53 AM 28.9 °F 21.9 °F 26.1 °F 89% 30.04 in 10.0 mi SE 6.9 mph - N/A   Clear
8:53 AM 34.0 °F 26.0 °F 28.0 °F 79% 30.04 in 10.0 mi SE 10.4 mph - N/A   Clear
9:53 AM 41.0 °F 34.7 °F 30.9 °F 67% 30.04 in 10.0 mi SSE 10.4 mph - N/A   Clear
10:53 AM 44.1 °F 39.0 °F 30.0 °F 58% 30.04 in 10.0 mi SE 9.2 mph - N/A   Clear
11:53 AM 48.0 °F - 30.9 °F 52% 30.03 in 10.0 mi ESE 11.5 mph - N/A   Clear
12:53 PM 51.1 °F - 30.9 °F 46% 30.00 in 10.0 mi SE 9.2 mph 17.3 mph N/A   Clear
1:53 PM 53.1 °F - 30.9 °F 43% 29.95 in 10.0 mi East 11.5 mph - N/A   Clear
2:53 PM 54.0 °F - 30.9 °F 41% 29.94 in 10.0 mi ESE 13.8 mph 20.7 mph N/A   Clear
3:53 PM 54.0 °F - 30.9 °F 41% 29.92 in 10.0 mi SE 13.8 mph 21.9 mph N/A   Clear
4:53 PM 53.1 °F - 30.9 °F 43% 29.91 in 10.0 mi ESE 16.1 mph - N/A   Clear
5:53 PM 50.0 °F - 30.9 °F 48% 29.91 in 10.0 mi ESE 11.5 mph - N/A   Clear
6:53 PM 46.9 °F - 30.0 °F 52% 29.91 in 10.0 mi ESE 9.2 mph - N/A   Clear
7:53 PM 44.1 °F 38.6 °F 30.9 °F 60% 29.93 in 10.0 mi ESE 10.4 mph - N/A   Clear
8:53 PM 42.1 °F 34.9 °F 30.0 °F 62% 29.92 in 10.0 mi SE 13.8 mph 21.9 mph N/A   Clear
9:53 PM 39.9 °F 32.9 °F 30.9 °F 70% 29.92 in 10.0 mi SE 11.5 mph - N/A   Clear
10:53 PM 39.0 °F 32.3 °F 30.9 °F 73% 29.91 in 10.0 mi SE 10.4 mph - N/A   Clear
11:53 PM 37.0 °F 34.5 °F 30.0 °F 76% 29.90 in 10.0 mi ESE 3.5 mph - N/A   Clear